Weather in Obskoy

Russia / Novosibirsk Oblast     55°28′27″N   83°26′54″E
temp.,
°C
wind,
m/s
gust,
m/s
humid.,
%
clouds,
%
prec.,
mm/h
press.,
hPa
HPBL,
m
28 february, sun
sun2801:00−29sw359976 0.0 103882
04:00−30ssw359857 0.0 103880
07:00−31ssw339748 0.0 103954
10:00−27s369550 0.0 1038187
13:00−20sse359165 0.0 1035342
16:00−17sse368981 0.0 1032441
19:00−18ese239490 0.0 102948
22:00−16ese3795100 0.1 1027206
1 march, mon
mon101:00−15ese3796100 0.3 1024223
04:00−12ese3795100 0.2 1020243
07:00−11ese4795100 0.8 1017302
10:00−8ese4795100 1.0 1014371
13:00−5ese4795100 1.9 1011519
16:00−4ene6996100 2.2 1009536
19:00−6ne61095100 4.6 1008418
22:00−9ne61095100 1.3 1008395
2 march, tue
tue201:00−11nne4895100 2.2 1009404
04:00−14nne3796100 0.1 1011248
07:00−18nne349898 0.2 1014107
10:00−18ne249789 0.1 1017145
13:00−13ne118992 0.1 1018350
16:00−11ene1088100 0.1 1018404
19:00−13e2296100 0.2 101838
22:00−15ese2296100 0.2 101829
3 march, wed
wed301:00−15se129698 0.2 101720
04:00−15se1197100 0.1 101620
07:00−15e119796 0.3 101621
10:00−13ene129599 0.1 1016131
13:00−9ene1291100 0.5 1016361
16:00−8ene1191100 0.4 1017330
19:00−10nw1296100 0.8 101982
22:00−13wsw239799 0.4 102250
4 march, thu
thu401:00−16sw369697 0.4 1023131
04:00−18ssw339778 0.0 102468
07:00−19s359782 0.1 1026104
10:00−17s489367 0.0 1026259
13:00−12sse489079 0.0 1025443
16:00−8sse488899 0.0 1023617
19:00−9sse3992100 0.0 1022387
22:00−10se41092100 0.0 1020265